Wind_Speed
25 23 13 18 21 22 19 21 18 18 23 23 17 6 10 8 8 8 8 3 3 0 1 3 4 2 4 9 13 12 13 13 19 19 18 17 16 14 10 11 15 12 15 19
30 16 16 27 23 22 17 19 19 18 25 27 17 11 13 13 8 11 8 6 0 5 3 4 3 4 3 4 7 10 8 10 12 13 15 15 15 15 14 12 11 14 16 18
31 23 26 32 27 24 18 17 19 23 25 28 22 14 15 8 5 8 9 7 4 4 6 6 5 4 4 5 5 7 8 8 11 13 12 11 8 10 11 11 9 14 14 17
39 30 32 33 26 24 21 19 23 25 28 29 26 20 16 14 6 6 10 2 4 4 6 7 7 7 6 6 5 7 8 6 7 8 11 13 14 14 12 12 13 15 16 16
35 29 31 36 23 30 20 29 24 27 30 29 27 24 15 17 14 9 9 11 6 4 2 5 8 8 9 7 7 6 5 6 6 5 6 9 10 12 12 10 10 10 12 11
39 34 38 35 32 35 26 31 29 30 31 29 23 22 18 15 15 12 9 11 7 8 8 5 7 6 5 6 5 5 6 7 8 7 8 10 11 11 12 11 11 9 10 9
35 37 38 39 37 34 31 31 32 33 31 25 23 25 20 17 16 15 13 15 14 15 14 11 9 8 7 7 7 6 7 9 10 8 7 8 8 9 9 13 13 9 10 15
35 35 34 35 35 30 31 31 37 33 31 27 27 30 21 19 20 15 15 12 14 17 11 9 12 12 8 8 10 10 9 9 9 9 11 12 13 13 12 13 17 17 15 17
41 40 35 34 36 36 35 39 31 37 37 33 29 29 24 19 21 21 16 18 12 19 17 10 11 14 14 12 11 15 12 11 10 13 17 18 18 18 18 18 19 21 21 23
44 43 40 36 38 40 40 34 36 40 40 33 28 28 23 20 24 23 19 21 14 14 16 19 15 13 13 14 14 14 14 10 13 15 15 18 23 21 25 28 25 23 25 27
46 45 40 38 44 42 40 39 39 39 41 37 29 26 20 20 25 28 27 20 20 16 15 15 19 13 12 14 16 16 18 17 16 18 21 26 31 30 31 29 37 29 34 37
51 49 47 42 42 41 43 44 42 45 44 41 36 29 21 21 24 27 28 23 21 21 19 17 20 20 16 15 17 18 18 19 20 23 26 30 32 34 35 40 38 39 37 37
55 55 53 49 44 46 47 47 46 45 46 44 42 31 22 29 29 29 31 29 28 22 18 17 20 22 21 23 22 23 23 24 25 25 25 25 26 30 31 22 20 24 26 25
55 55 56 58 53 50 53 51 50 48 47 47 44 35 24 31 30 31 30 28 26 24 28 30 28 20 25 21 20 20 21 24 26 25 24 26 27 26 29 27 23 22 23 25
47 49 57 58 58 53 54 55 52 51 49 50 44 41 30 30 33 29 34 36 35 35 31 25 25 26 29 30 20 18 19 23 26 29 28 29 29 30 30 27 26 24 26 28
45 51 51 60 56 53 53 54 54 53 53 49 49 47 40 34 31 33 34 36 36 35 30 26 26 28 23 24 28 29 30 27 31 31 30 32 32 32 32 29 28 27 29 29
52 55 50 46 47 51 54 46 55 56 55 53 51 49 43 39 37 38 38 39 37 31 32 33 31 31 27 28 34 33 25 25 25 28 30 33 33 33 32 32 32 31 34 34
45 53 59 55 53 57 51 45 52 53 57 57 55 51 47 43 40 36 36 38 38 39 37 36 32 32 33 31 30 31 33 29 27 30 34 36 35 36 36 37 38 37 36 36
37 42 45 44 54 72 47 37 38 54 54 55 58 56 54 43 40 39 41 39 31 34 36 34 37 37 32 36 35 34 37 30 29 29 31 33 33 34 35 36 38 39 40 42
38 38 40 41 42 53 50 45 40 50 57 46 53 55 54 52 49 42 39 41 39 36 34 31 33 35 36 36 34 35 39 34 31 30 30 32 33 35 37 38 39 41 42 44
40 39 39 38 43 43 53 47 34 39 48 47 45 50 49 48 48 44 41 47 43 33 34 37 38 40 40 41 37 34 39 36 36 34 34 35 36 37 38 39 42 43 44 46
43 42 39 38 36 39 48 46 34 34 44 50 49 46 41 40 41 43 45 46 45 43 42 43 44 40 42 41 38 37 40 41 40 39 39 40 40 40 42 43 44 45 47 48
47 43 41 35 33 26 30 48 41 25 35 37 50 50 45 39 39 44 46 51 52 48 43 47 47 41 39 39 38 41 40 43 44 42 42 41 42 42 43 45 47 48 50 51
48 47 41 36 29 30 28 39 50 37 26 35 30 32 39 36 40 45 42 41 43 39 38 36 40 41 43 43 44 39 41 43 45 44 44 42 44 46 46 47 48 50 51 53
47 47 42 39 29 32 28 23 34 39 26 33 28 29 30 32 37 40 41 41 43 43 42 39 40 43 42 37 40 41 42 46 47 49 50 49 50 51 51 51 51 53 55 58
45 44 41 39 32 30 23 21 23 26 27 31 32 35 31 32 30 38 43 40 41 44 43 45 45 45 38 39 39 42 43 44 45 48 49 49 50 52 54 55 56 58 60 63
Wind_Direction
248 244 250 247 235 244 265 277 279 282 281 274 262 241 273 290 280 276 283 299 342 350 276 99 101 88 89 108 109 105 129 166 188 182 175 175 172 176 179 190 186 178 203 207
243 236 234 238 240 253 254 263 276 273 280 278 254 236 251 265 245 232 242 271 220 254 222 229 181 187 182 137 131 132 140 139 143 153 153 151 151 160 167 159 158 157 175 178
243 229 230 239 239 243 251 255 268 271 269 277 279 271 259 246 239 242 230 277 312 277 253 229 206 213 201 183 157 144 145 166 162 153 151 146 151 170 172 168 171 183 196 200
237 232 230 243 245 251 250 247 253 264 267 275 276 279 258 252 249 275 223 221 328 274 252 223 187 162 177 167 167 151 148 161 165 155 153 158 169 181 181 183 192 197 212 223
243 238 238 243 246 250 246 249 249 254 259 265 273 281 285 258 249 232 241 242 235 244 227 221 208 179 178 195 199 207 208 221 209 189 199 200 191 192 188 188 198 204 214 220
233 227 232 238 234 244 235 244 251 257 259 266 272 282 282 278 243 228 226 215 213 224 224 214 233 189 193 191 207 214 226 237 232 226 231 233 224 223 221 216 212 212 228 239
238 235 233 236 237 239 245 246 249 256 262 272 264 269 276 272 260 238 229 224 226 224 234 208 211 224 207 213 226 226 227 238 249 253 250 246 250 237 235 235 234 239 242 234
236 233 234 239 246 249 250 248 252 258 262 269 257 263 265 272 259 245 229 224 241 232 199 223 235 227 232 256 262 242 252 258 265 264 261 262 260 258 256 254 251 254 257 255
236 237 230 233 238 236 241 245 254 255 256 257 250 260 265 271 256 245 234 239 254 237 231 234 236 243 255 257 258 239 265 266 259 252 251 257 265 268 261 256 262 263 257 248
231 234 231 231 236 233 233 239 244 248 253 258 257 258 265 262 251 255 247 252 243 239 243 231 225 228 241 250 247 250 270 260 254 258 270 274 262 267 285 260 254 259 267 265
233 232 229 225 230 234 234 230 238 244 248 253 257 254 247 258 248 253 257 260 228 241 258 255 248 237 235 239 256 258 260 271 273 267 265 274 277 278 278 283 268 262 266 269
234 232 232 226 221 228 232 234 230 241 247 256 257 247 253 251 250 248 259 262 250 262 258 270 256 252 248 261 264 267 267 273 268 268 267 273 278 276 275 277 275 267 265 268
237 236 234 226 222 225 229 234 236 237 245 250 252 255 245 250 254 254 254 256 263 259 250 245 269 257 249 278 269 268 264 265 267 269 272 274 277 275 287 299 303 256 275 289
236 236 235 234 226 224 228 227 230 236 241 247 253 259 249 244 251 259 256 253 263 263 268 269 270 251 276 270 239 259 262 265 269 270 277 276 275 278 281 284 287 290 290 289
231 239 239 236 236 228 227 230 228 233 238 246 255 252 249 249 249 253 257 253 259 257 264 266 268 260 272 283 250 258 270 272 270 270 270 274 280 282 281 277 283 288 285 284
219 226 235 236 239 239 229 230 234 232 236 238 246 250 246 243 254 252 259 259 262 260 273 269 264 269 265 248 259 273 274 269 261 267 273 275 277 278 280 280 281 281 281 280
243 250 239 228 237 241 236 229 234 238 237 238 239 246 252 241 246 254 257 256 259 258 263 271 277 274 261 267 272 278 270 266 267 272 274 276 277 278 276 276 275 277 278 278
243 253 258 244 239 240 237 239 240 240 242 244 246 244 251 247 244 245 250 257 261 262 260 263 272 273 262 267 274 268 266 270 277 281 279 280 281 281 281 276 274 273 275 278
249 249 254 257 258 246 219 236 250 245 238 240 241 250 252 245 242 237 249 257 265 271 266 269 273 270 271 269 268 273 266 266 273 283 286 283 281 279 279 277 276 278 280 282
254 260 266 265 269 258 226 234 256 251 241 247 243 243 249 249 246 241 242 254 259 259 261 259 270 270 270 269 270 270 266 272 280 283 283 281 279 277 276 275 274 275 278 281
250 257 265 272 274 255 228 235 261 242 241 239 252 247 244 249 256 252 245 252 249 256 269 274 271 272 274 269 273 271 269 273 276 280 281 281 280 280 280 277 275 275 277 278
250 255 263 269 278 277 254 234 250 239 251 241 242 249 248 249 254 256 245 245 251 255 258 265 273 275 275 276 272 268 270 273 275 278 283 286 285 284 284 283 280 278 278 279
248 255 264 269 273 282 275 237 238 242 226 238 237 242 249 251 255 256 249 251 258 265 267 267 270 273 272 275 276 271 269 275 278 277 279 284 286 284 283 283 282 281 281 282
249 252 259 262 261 265 274 265 253 262 229 228 234 239 245 247 251 252 255 257 260 261 258 257 263 267 268 274 270 269 273 275 274 276 278 280 283 283 281 280 280 281 281 280
245 249 253 257 259 245 264 267 260 264 239 230 232 236 241 249 250 251 250 256 257 255 255 254 256 260 266 272 277 278 276 278 278 276 277 278 280 280 279 277 277 277 277 278
240 243 248 257 253 246 252 261 263 251 242 238 233 253 247 240 255 247 250 251 249 251 253 259 258 261 265 268 273 279 279 279 278 277 277 278 279 278 277 277 276 277 277 279
Height
5737 5742 5747 5746 5746 5745 5748 5746 5746 5745 5743 5741 5740 5736 5741 5743 5742 5741 5738 5738 5736 5735 5735 5732 5732 5731 5731 5728 5726 5728 5728 5728 5730 5732 5733 5735 5737 5740 5741 5744 5747 5744 5748 5752
5732 5739 5741 5737 5741 5741 5742 5743 5744 5743 5738 5736 5737 5734 5738 5740 5740 5738 5736 5735 5736 5735 5735 5733 5732 5732 5732 5732 5729 5729 5730 5731 5730 5733 5734 5734 5735 5738 5740 5741 5742 5743 5748 5752
5728 5734 5733 5731 5734 5737 5737 5738 5739 5739 5735 5733 5731 5730 5733 5736 5737 5737 5736 5734 5734 5734 5734 5734 5732 5731 5732 5732 5732 5731 5731 5734 5733 5732 5732 5733 5734 5738 5738 5740 5743 5745 5748 5751
5717 5725 5726 5726 5730 5733 5734 5734 5732 5732 5731 5730 5728 5726 5729 5729 5733 5734 5734 5733 5733 5734 5734 5734 5733 5731 5732 5731 5732 5732 5734 5735 5735 5733 5733 5733 5736 5739 5738 5740 5743 5744 5745 5746
5715 5720 5722 5720 5729 5724 5733 5726 5726 5726 5725 5726 5724 5722 5725 5724 5729 5731 5732 5734 5733 5733 5733 5734 5733 5731 5732 5733 5733 5733 5734 5736 5735 5734 5736 5737 5736 5739 5740 5739 5741 5743 5744 5742
5703 5710 5711 5715 5719 5717 5725 5721 5721 5720 5720 5720 5721 5719 5720 5720 5723 5725 5728 5731 5731 5731 5731 5732 5733 5731 5732 5732 5734 5732 5733 5733 5734 5734 5734 5736 5739 5739 5737 5737 5738 5738 5740 5738
5698 5702 5706 5707 5710 5714 5717 5718 5716 5715 5716 5717 5717 5714 5715 5717 5719 5721 5724 5728 5729 5728 5728 5728 5729 5730 5730 5730 5731 5732 5733 5733 5733 5734 5735 5736 5735 5735 5734 5734 5735 5735 5736 5738
5688 5694 5698 5704 5706 5712 5711 5712 5710 5710 5711 5714 5711 5708 5712 5712 5714 5717 5719 5723 5725 5726 5725 5724 5725 5726 5727 5727 5728 5729 5729 5729 5730 5730 5731 5731 5732 5731 5729 5731 5730 5732 5731 5733
5679 5684 5691 5694 5697 5702 5704 5701 5710 5704 5703 5703 5707 5706 5708 5709 5709 5713 5716 5718 5720 5724 5722 5721 5721 5722 5722 5723 5724 5724 5724 5724 5726 5727 5727 5727 5727 5728 5728 5725 5726 5724 5726 5727
5669 5673 5681 5687 5688 5690 5692 5699 5699 5697 5695 5697 5700 5702 5705 5707 5706 5706 5712 5714 5716 5719 5719 5719 5717 5717 5718 5718 5719 5720 5721 5721 5721 5721 5723 5723 5721 5720 5719 5719 5719 5719 5718 5718
5659 5664 5672 5676 5677 5681 5686 5688 5690 5692 5690 5689 5693 5696 5702 5702 5701 5701 5704 5707 5710 5713 5715 5715 5715 5713 5713 5714 5715 5715 5716 5716 5716 5716 5715 5714 5712 5712 5711 5711 5710 5709 5710 5711
5648 5654 5659 5665 5669 5672 5676 5678 5682 5682 5684 5685 5686 5689 5696 5697 5696 5696 5697 5700 5704 5705 5708 5709 5710 5710 5709 5710 5711 5711 5710 5710 5710 5710 5708 5707 5704 5702 5704 5704 5702 5703 5701 5702
5636 5643 5650 5657 5661 5661 5664 5669 5673 5676 5676 5675 5678 5682 5692 5691 5691 5691 5692 5696 5696 5697 5701 5703 5705 5705 5705 5705 5705 5705 5705 5704 5703 5702 5701 5701 5700 5698 5696 5694 5693 5694 5693 5693
5628 5632 5638 5644 5650 5650 5652 5656 5662 5667 5667 5667 5668 5675 5683 5685 5686 5686 5686 5689 5689 5691 5692 5695 5697 5698 5699 5699 5699 5698 5698 5697 5697 5696 5694 5694 5694 5693 5692 5691 5689 5688 5685 5686
5618 5623 5630 5631 5635 5640 5643 5647 5651 5654 5658 5658 5664 5666 5675 5677 5679 5680 5679 5679 5681 5681 5684 5686 5689 5691 5693 5693 5692 5691 5691 5691 5690 5688 5687 5686 5686 5685 5684 5683 5681 5678 5679 5679
5607 5614 5616 5621 5624 5627 5636 5642 5644 5644 5646 5646 5650 5654 5663 5668 5670 5671 5672 5672 5673 5673 5675 5678 5681 5683 5685 5686 5685 5685 5683 5683 5682 5680 5679 5678 5677 5676 5675 5673 5672 5672 5671 5670
5598 5600 5607 5612 5616 5616 5623 5634 5632 5635 5638 5639 5640 5646 5654 5657 5660 5662 5662 5664 5666 5668 5669 5670 5670 5674 5677 5678 5678 5676 5674 5674 5673 5673 5672 5671 5670 5668 5667 5666 5665 5664 5663 5661
5592 5592 5594 5602 5606 5601 5619 5618 5622 5624 5629 5632 5634 5636 5641 5647 5652 5654 5654 5655 5658 5660 5660 5662 5664 5665 5667 5667 5668 5668 5667 5666 5665 5664 5663 5662 5660 5659 5658 5657 5656 5656 5654 5653
5587 5589 5590 5591 5590 5592 5604 5610 5610 5606 5615 5618 5622 5631 5633 5637 5641 5643 5647 5649 5651 5653 5654 5656 5657 5657 5657 5659 5659 5659 5660 5659 5658 5656 5654 5652 5649 5648 5648 5647 5645 5644 5643 5641
5579 5580 5582 5583 5581 5582 5604 5605 5596 5597 5605 5613 5612 5616 5622 5629 5629 5636 5642 5641 5642 5645 5647 5649 5649 5648 5648 5650 5651 5650 5651 5650 5648 5646 5644 5643 5641 5639 5638 5636 5634 5633 5630 5629
5571 5572 5575 5575 5572 5580 5591 5592 5589 5591 5601 5604 5606 5607 5609 5617 5621 5627 5629 5631 5633 5635 5636 5637 5638 5640 5640 5640 5640 5641 5641 5639 5637 5636 5635 5633 5632 5629 5627 5625 5623 5621 5618 5616
5564 5567 5568 5567 5568 5574 5573 5582 5583 5581 5583 5590 5593 5598 5604 5607 5610 5613 5617 5618 5621 5624 5626 5627 5627 5629 5628 5628 5629 5629 5629 5628 5626 5625 5624 5622 5620 5618 5616 5614 5611 5609 5606 5604
5556 5558 5558 5562 5563 5564 5561 5570 5568 5570 5574 5578 5583 5590 5596 5599 5601 5602 5604 5607 5611 5614 5617 5619 5618 5619 5620 5620 5619 5618 5618 5617 5617 5614 5612 5610 5609 5606 5604 5602 5599 5597 5594 5592
5547 5548 5549 5553 5559 5556 5556 5558 5561 5563 5565 5569 5573 5579 5584 5588 5591 5593 5596 5598 5601 5604 5605 5606 5607 5607 5608 5609 5608 5607 5607 5605 5604 5602 5599 5597 5596 5594 5591 5588 5586 5584 5581 5578
5536 5536 5543 5544 5551 5549 5551 5551 5552 5558 5557 5561 5563 5569 5574 5579 5581 5584 5586 5588 5591 5593 5594 5595 5596 5596 5596 5597 5597 5596 5594 5593 5591 5589 5587 5584 5582 5580 5578 5575 5572 5569 5567 5563
5524 5530 5534 5537 5542 5542 5547 5544 5546 5550 5550 5552 5556 5561 5565 5569 5571 5573 5576 5579 5580 5583 5583 5584 5584 5585 5585 5584 5584 5584 5582 5580 5578 5576 5574 5572 5569 5566 5564 5561 5558 5555 5551 5547